User: anonymous   Login
Location: Unspecified
(0.0000°N, 0.0000°E)
Time: 01:10:19
(UTC+00:00)
Language:

Explorer 7 - Orbit

View from above orbital plane
View from above orbital plane
View from above satellite
View from above satellite

Ground track
Ground track

The orbit data is extracted from the following two-line orbital elements,

1 00022U 59009A   14327.85824130  .00006311  00000-0  53890-3 0   883
2 00022 050.2842 260.6255 0152223 068.1113 293.5940 14.90318731921458
Epoch (UTC): 23 November 2014 20:35:52
Eccentricity: 0.0152223
inclination: 50.2842°
perigee height: 491 km
apogee height: 703 km
right ascension of ascending node: 260.6255°
argument of perigee: 68.1113°
revolutions per day: 14.90318731
mean anomaly at epoch: 293.5940°
orbit number at epoch: 92145

The dashed part of the orbit path shows where the satellite is in the earth's shadow,  

DLR